Home   Weather   Leutkirch im Allgäu   Past weeks

Flag for Germany Past Weather in Leutkirch im Allgäu, Baden-Württemberg, Germany — Yesterday and Last 2 Weeks

Now
73 °F

Sunny.


Feels Like: 75 °F
Forecast: 58 / 82 °F
Wind: 5 mph from Southwest

Location: Friedrichshafen Airport

Current Time: Aug 17, 2017 at 11:28:44 am

Latest Report: Aug 17, 2017 at 10:50 am


Visibility: 10 mi

Pressure: 30.15 "Hg (27.95 "Hg at 656m altitude)

Humidity: 74%

Dew Point: 64 °F

Location of Leutkirch im AllgäuLocation

Past Weather in Leutkirch im Allgäu — Graph

°F

Leutkirch im Allgäu Temperature Yesterday

Maximum temperature yesterday: 81 °F (at 4:50 pm)
Minimum temperature yesterday: 63 °F (at 12:20 am)
Average temperature yesterday: 69 °F

High & Low Weather Summary for the Past Weeks

 TemperatureHumidityPressure
High88 °F (Aug 3, 3:50 pm)100% (Aug 3, 1:50 am)30.21 "Hg (Aug 3, 1:50 am)
Low52 °F (Aug 7, 4:50 am)43% (Aug 3, 4:50 pm)29.86 "Hg (Aug 8, 6:50 am)
Average66 °F80%30.08 "Hg
* Reported Aug 2 10:20 am — Aug 17 10:20 am, Leutkirch im Allgäu. Weather by CustomWeather, © 2017

Note: Actual official high and low records may vary slightly from our data, if they occured in-between our weather recording intervals... More about our weather records

Advertising

Leutkirch im Allgäu Weather History for the Previous 24 Hours

Scroll right to see more
 ConditionsComfort  
Time TempWeatherWind HumidityBarometerVisibility
10:20 am
Thu, Aug 17
72 °FSunny.5 mph83%30.15 "Hg10 mi
9:20 am70 °FSunny.2 mph83%30.15 "Hg10 mi
8:50 am68 °FSunny.1 mph88%30.15 "Hg10 mi
8:20 am66 °FSunny.No wind88%30.15 "Hg10 mi
7:50 am64 °FSunny.No wind94%30.12 "Hg10 mi
7:20 am63 °FSunny.No wind94%30.12 "Hg10 mi
6:50 am61 °FSunny.2 mph94%30.12 "Hg10 mi
6:20 am61 °FSunny.3 mph94%30.12 "Hg10 mi
5:50 am63 °FClear.6 mph94%30.12 "Hg10 mi
9:50 pm
Wed, Aug 16
66 °FClear.1 mph94%30.15 "Hg10 mi
9:20 pm68 °FClear.2 mph88%30.15 "Hg10 mi
8:50 pm70 °FClear.2 mph83%30.12 "Hg10 mi
8:20 pm72 °FSunny.No wind78%30.12 "Hg10 mi
7:50 pm72 °FSunny.No wind83%30.12 "Hg10 mi
7:20 pm73 °FSunny.2 mph74%30.12 "Hg10 mi
6:50 pm75 °FSunny.5 mph69%30.12 "Hg10 mi
6:20 pm77 °FSunny.5 mph61%30.12 "Hg10 mi
5:50 pm77 °FSunny.6 mph61%30.12 "Hg10 mi
5:20 pm79 °FSunny.2 mph58%30.12 "Hg10 mi
4:50 pm81 °FSunny.2 mph48%30.12 "Hg10 mi
4:20 pm79 °FSunny.6 mph54%30.12 "Hg10 mi
3:50 pm79 °FSunny.3 mph51%30.15 "Hg10 mi
3:20 pm79 °FPassing clouds.6 mph54%30.15 "HgN/A
2:50 pm79 °FPassing clouds.6 mph54%30.15 "HgN/A
2:20 pm77 °FSunny.3 mph61%30.15 "Hg10 mi
1:50 pm77 °FSunny.5 mph61%30.15 "Hg10 mi
1:20 pm77 °FPassing clouds.3 mph65%30.18 "HgN/A
12:50 pm75 °FPassing clouds.2 mph65%30.18 "HgN/A
12:20 pm73 °FPassing clouds.2 mph69%30.18 "HgN/A
11:50 am73 °FSunny.2 mph74%30.18 "Hg10 mi
11:20 am73 °FSunny.3 mph74%30.21 "Hg10 mi
Weather by CustomWeather, © 2017

See weather overviewHow to use our weather pages